Regional Weather Roundup
Issued by NWS

Home | Current Version | Previous Version | Graphics & Text | Print | Product List | Glossary On
Versions: 1 2 3 4 5 6 7 8 9 10 11 12 13 14 15 16 17 18 19 20 21 22 23 24 25 26 27 28 29 30 31 32 33 34 35 36 37 38 39 40 41 42 43 44 45 46 47 48 49 50
000
ASUS43 KLOT 311208
RWRIL

ILLINOIS REGIONAL WEATHER ROUNDUP
NATIONAL WEATHER SERVICE CHICAGO/ROMEOVILLE IL
700 AM CDT TUE MAY 31 2016

NOTE: "FAIR" INDICATES FEW OR NO CLOUDS BELOW 12,000 FEET WITH NO
SIGNIFICANT WEATHER AND/OR OBSTRUCTIONS TO VISIBILITY.

* THESE STATIONS ARE NOT UNDER NWS QUALITY CONTROL. THEY ALSO MAY NOT
  REPORT WEATHER SUCH AS PRECIPITATION OR FOG.

ILZ001-002-007-009-015-016-024-311300-
NORTHWEST ILLINOIS

CITY           SKY/WX    TMP DP  RH WIND       PRES   REMARKS
MOLINE         CLOUDY    71  64  78 CALM      29.96R
6HR MIN TEMP:  66; 6HR MAX TEMP:  72;

STERLING*      CLOUDY    68  61  78 E9        29.97S
SAVANNA*       CLOUDY    67  60  77 CALM      29.96S
$$

ILZ003-004-008-010-011-017-018-311300-
NORTH CENTRAL ILLINOIS

CITY           SKY/WX    TMP DP  RH WIND       PRES   REMARKS
ROCKFORD       CLOUDY    68  60  75 E6        30.00S
6HR MIN TEMP:  64; 6HR MAX TEMP:  68; 6HR PCP:  0.04;

FREEPORT*      CLOUDY    64  61  88 E6        30.00R
ROCHELLE*      CLOUDY    69  59  69 E6        29.99S
DE KALB*       MOSUNNY   67  58  73 NE5       30.01R
$$

ILZ005-006-012>014-019>023-311300-
NORTHEAST ILLINOIS

CITY           SKY/WX    TMP DP  RH WIND       PRES   REMARKS
CHICAGO-OHARE  PTSUNNY   69  54  58 E8        30.00R
6HR MIN TEMP:  64; 6HR MAX TEMP:  69;

CHICAGO-MIDWAY PTSUNNY   72  56  57 E7        29.99R
6HR MIN TEMP:  68; 6HR MAX TEMP:  72;

AURORA         PTSUNNY   70  59  68 E5        29.99S
6HR MIN TEMP:  63; 6HR MAX TEMP:  70;

LANSING*       CLOUDY    66  58  75 SE3       30.00S
JOLIET*        CLOUDY    72  60  66 E8        29.98F
WAUKEGAN       CLOUDY    65  56  72 E6        30.01S
6HR MIN TEMP:  57; 6HR MAX TEMP:  65;

DUPAGE AIRPORT MOSUNNY   68  55  63 E5        29.99R
6HR MIN TEMP:  64; 6HR MAX TEMP:  68;

KANKAKEE*      CLOUDY    66  59  77 E6        30.00R
WHEELING       MOSUNNY   67  54  63 E5        30.01S
6HR MIN TEMP:  62; 6HR MAX TEMP:  67;

MORRIS*        CLOUDY    71  58  64 E8        29.97F
ROMEOVILLE*    PTSUNNY   70  57  62 SE7       29.99S
NORTHERLY ISL    N/A     66  57  72 MISG        N/A
NORTHERLY ISL    N/A     66  57  72 MISG        N/A
$$

LMZ740>746-311300-
SOUTHERN LAKE MICHIGAN

STATION/POSITION SKY/WX   TEMP    WIND        PRES    VSBY  WAVE
                          AIR SEA DIR/SP/G                  HT/PER
                          (F)     (DEG/KT/KT) (MB)    (MI)  (FT/S)
SOUTHERN BUOY              59 55  180/  2/  2 1016.5R         0
WILMETTE HARBOR            61 57  100/  4/  6   N/A           1
HARRISON CRIB              67     140/  5/  5   N/A
BURNHAM HARBOR             67      40/  2/  3   N/A
CALUMET HARBOR             64      50/  4/  5 1015.1R
BURNS HARBOR               67     110/  6/  8 1016.3R
MICHIGAN CITY              65      40/  3/  4   N/A
MICHIGAN CITY 6N           63 61   60/  6/  6   N/A           0
ST. JOSEPH                 66 65  100/  8/ 10   N/A           1
$$

ILZ025>027-034>036-040-047-049-050-058-095>099-311300-
WEST-CENTRAL ILLINOIS

CITY           SKY/WX    TMP DP  RH WIND       PRES   REMARKS
QUINCY         CLOUDY    67  62  84 S5        29.99R
GALESBURG*     PTSUNNY   65  64  96 CALM      29.98R
MACOMB*        CLOUDY    65  63  92 SW5       30.00R
JACKSONVILLE*  CLOUDY    69  63  82 CALM      29.98R
PITTSFIELD*    LGT RAIN  67  64  91 CALM      30.01R
$$

ILZ028>032-037-038-041>044-048-051>054-059>061-311300-
CENTRAL ILLINOIS

CITY           SKY/WX    TMP DP  RH WIND       PRES   REMARKS
PONTIAC        MOSUNNY   71  63  77 CALM      29.99R
BLOOMINGTON    CLOUDY    68  64  86 SE3       30.00S
DECATUR        CLOUDY    68  62  81 CALM      29.99R
PEORIA         CLOUDY    68  63  84 S3        29.98R
6HR MIN TEMP:  66; 6HR MAX TEMP:  71;

LACON*         CLOUDY    68  62  80 SE3       29.97R
LINCOLN*       CLOUDY    68  64  85 CALM      29.98R
SPRINGFIELD    CLOUDY    69  63  81 CALM      29.98R
6HR MIN TEMP:  64; 6HR MAX TEMP:  69;

TAYLORVILLE    CLOUDY    66  63  90 CALM      29.98F
6HR MIN TEMP:  64; 6HR MAX TEMP:  66;

$$

ILZ033-039-045-046-055>057-062-063-311300-
EAST-CENTRAL ILLINOIS

CITY           SKY/WX    TMP DP  RH WIND       PRES   REMARKS
CHAMPAIGN      CLOUDY    66  62  87 E5        30.00R
RANTOUL*       MOSUNNY   71  62  72 S5        30.00R
MATTOON        CLOUDY    67  63  87 CALM      29.99R
PARIS*         CLOUDY    66  64  93 CALM      30.01S
$$

ILZ079-100>102-311300-
SOUTHWEST ILLINOIS

CITY           SKY/WX    TMP DP  RH WIND       PRES   REMARKS
ALTON          CLOUDY    66  61  82 CALM      29.99R
BELLEVILLE     CLOUDY    69  67  93 CALM      29.97R
CAHOKIA*       CLOUDY    70  63  78 W9        30.01R
SPARTA*        CLOUDY    69  63  80 CALM      29.99S
$$

ILZ064>066-069>071-074>076-080>082-084>086-088>090-092>094-311300-
SOUTH-CENTRAL ILLINOIS

CITY           SKY/WX    TMP DP  RH WIND       PRES   REMARKS
CARBONDALE     CLOUDY    69  66  90 CALM      29.97S
6HR MIN TEMP:  67; 6HR MAX TEMP:  69;

CAIRO*         CLOUDY    70  67  93 CALM      29.96R
EFFINGHAM*     PTSUNNY   67  67 100 CALM      30.00S
MARION         PTSUNNY   68  68 100 CALM      29.98S
MT. VERNON     CLOUDY    66  63  88 CALM      29.99R
CENTRALIA*     CLOUDY    70  66  87 E3        29.98R
SALEM*         CLOUDY    73  62  69 CALM      29.98R
METROPOLIS*    CLOUDY    68  68  99 CALM      29.97S
$$

ILZ067-068-072-073-078-083-087-091-311300-
SOUTHEAST ILLINOIS

CITY           SKY/WX    TMP DP  RH WIND       PRES   REMARKS
LAWRENCEVILLE  MOSUNNY   67  63  87 N3        29.99R
FLORA*         MOSUNNY   72  66  83 CALM      29.99R
FAIRFIELD*     PTSUNNY   69  66  93 CALM      29.98R
HARRISBURG*    CLOUDY    69  68  98 CALM      29.98S
ROBINSON*      PTSUNNY   65  64  99 CALM      30.00S
CARMI*         CLOUDY    66  66 100 CALM      29.98R FOG
$$

ABBREVIATIONS USED IN REMARKS
   TC - TEMPERATURE IN CELSIUS
  WCI - WIND CHILL INDEX
   HX - HEAT INDEX
  VSB - VISIBILITY
$$




USA.gov is the U.S. government's official web portal to all federal, state and local government web resources and services.